Oregon State Current Weather Observations

 
 ASUS46 KPQR 172010
 RWROR 
 
 OREGON REGIONAL WEATHER ROUNDUP
 NATIONAL WEATHER SERVICE PORTLAND OR
 100 PM PDT WED OCT 17 2018
 
 NOTE: "FAIR" INDICATES FEW OR NO CLOUDS BELOW 12,000 FEET WITH
 NO SIGNIFICANT WEATHER AND/OR OBSTRUCTIONS TO VISIBILITY.
 
 ORZ001>013-172100-
 NORTHWEST OREGON
 
   
 CITY           SKY/WX    TMP DP  RH WIND       PRES   REMARKS
 ASTORIA        SUNNY     72  47  40 NE7       30.11F                  
 TILLAMOOK      SUNNY     75  37  25 E5        30.12S                  
 NEWPORT        SUNNY     77  36  22 NE3       30.13S                  
 PORTLAND       MOSUNNY   69  40  34 CALM      30.15F                  
 VANCOUVER WA   SUNNY     68  39  34 W7        30.14F                  
 SCAPPOOSE      SUNNY     73  36  25 CALM      30.14F                  
 HILLSBORO      SUNNY     73  35  25 NE8       30.14F                  
 AURORA         SUNNY     74  37  26 VRB5      30.14F                  
 MCMINNVILLE    SUNNY     72  35  25 CALM      30.13F                  
 SALEM          SUNNY     70  35  27 NE7       30.13F                  
 CORVALLIS      SUNNY     69  37  30 CALM      30.14F                  
 EUGENE         SUNNY     68  36  30 N9        30.13F                  
 
ORZ021-028-172100- SOUTHWEST OREGON CITY SKY/WX TMP DP RH WIND PRES REMARKS NORTH BEND SUNNY 53 49 86 W10 30.12S BROOKINGS SUNNY 56 49 77 W3 30.11F ROSEBURG SUNNY 69 38 32 CALM 30.11F SEXTON SUMMIT SUNNY 71 28 20 SE8 30.20S GRANTS PASS FAIR 70 30 23 CALM 30.14F MEDFORD SUNNY 71 29 21 CALM 30.11F
ORZ014>016-041-172100- COLUMBIA GORGE CITY SKY/WX TMP DP RH WIND PRES REMARKS TROUTDALE SUNNY 69 37 30 E21G30 30.14F HOOD RIVER SUNNY 64 34 32 NE3 30.25F THE DALLES SUNNY 60 35 39 CALM 30.27F
ORZ029>031-041-044-049-050-061>064-502-503-505>511-172100- EASTERN OREGON CITY SKY/WX TMP DP RH WIND PRES REMARKS MADRAS SUNNY 55 32 41 N3 30.29F REDMOND SUNNY 63 29 27 VRB3 30.25F BEND SUNNY 63 25 23 SE6 30.25 PRINEVILLE SUNNY 63 27 25 CALM 30.25F KLAMATH FALLS SUNNY 64 27 24 SE3 30.24F LAKEVIEW SUNNY 64 28 25 S6 30.26F HERMISTON SUNNY 59 36 42 VRB3 30.28F PENDLETON SUNNY 59 35 40 N9 30.27F JOHN DAY SUNNY 62 33 33 CALM 30.26F MEACHAM SUNNY 63 34 33 VRB5 30.27F LA GRANDE SUNNY 54 33 45 CALM 30.29F BAKER CITY SUNNY 62 33 33 CALM 30.29F BURNS SUNNY 63 21 20 E7 30.28F ROME N/A 62 25 24 E7 30.25F ONTARIO SUNNY 61 32 33 NW3 30.31F

Data from: http://www.wrh.noaa.gov/sew/get.php?pil=RWR&sid=OR&version=0&format=printer

Current Observations

Current Weather Conditions by Major Highway
Washington State Current Weather Observations   …  Oregon State Current Weather Observation



48 Hour Forecast


Seattle  …  Vancouver  …  Portland
————————————————————————————————————————
Bend  …  Spokane  …  Richland  …  Pendleton  …  Blue Mountains I-84  …  Yakima
————————————————————————————————————————
Goldendale, Washington Higher Elevations  …  Dallesport Airport - Goldendale  …  Bingen - White Salmon - Hood River  …  Index





Top of Page